Marion, OH

2:36 AM EDT on September 15, 2019 (GMT -0400)
Marion Municipal

Weather History for KMNN - August, 2019

Change the Weather History Date:

Thursday, August 22, 2019

  Actual Average (KDLZ) Record (KDLZ)
Temperature  
Mean Temperature 70 °F -  
Max Temperature 77 °F 80 °F 102 °F (1936)
Min Temperature 64 °F 56 °F 43 °F (1982)
Cooling Degree Days 6    
Growing Degree Days 20 (Base 50)    
Moisture  
Dew Point 66 °F    
Average Humidity 84    
Maximum Humidity 93    
Minimum Humidity 66    
Precipitation  
Precipitation 0.34 in - - ()
Sea Level Pressure  
Sea Level Pressure 29.99 in    
Wind  
Wind Speed 5 mph (NNW)    
Max Wind Speed 15 mph    
Max Gust Speed 22 mph    
Visibility 8 miles    
Events Rain    
Averages and records for this station are not official NWS values.
T = Trace of Precipitation, MM = Missing Value Source: NWS Daily Summary

Daily Weather History Graph

Daily Weather History Graph

Search for Another Location

Airport or City:

Astronomy

Aug. 22, 2019 Rise Set
Actual Time 6:49 AM EDT 8:20 PM EDT
Civil Twilight 6:20 AM EDT 8:48 PM EDT
Nautical Twilight 5:45 AM EDT 9:23 PM EDT
Astronomical Twilight 5:09 AM EDT 10:00 PM EDT
Moon No Moon Rise 1:25 PM EDT (8/22)
Length of Visible Light 14h 28m
Length of Day
13h 30m
Waning Gibbous, 60% of the Moon is Illuminated
Aug 22
Waning Gibbous
Aug 23
Last Quarter
Aug 30
New
Sep 5
First Quarter
Sep 14
Full

Hourly Weather History & Observations

Time (EDT) Temp. Dew Point Humidity Pressure Visibility Wind Dir Wind Speed Gust Speed Precip Events Conditions
12:53 AM 73.0 °F 66.0 °F 79% 29.97 in 10.0 mi WSW 5.8 mph - N/A   Clear
1:53 AM 73.0 °F 66.0 °F 79% 29.95 in 10.0 mi WSW 5.8 mph - N/A   Partly Cloudy
2:53 AM 73.0 °F 66.9 °F 81% 29.94 in 10.0 mi West 5.8 mph - N/A   Overcast
3:53 AM 70.0 °F 66.0 °F 87% 29.95 in 10.0 mi North 9.2 mph - N/A   Scattered Clouds
4:53 AM 68.0 °F 64.9 °F 90% 29.94 in 10.0 mi Calm Calm - N/A   Partly Cloudy
5:53 AM 68.0 °F 64.9 °F 90% 29.94 in 10.0 mi Calm Calm - N/A   Clear
6:53 AM 68.0 °F 66.0 °F 93% 29.96 in 10.0 mi South 4.6 mph - N/A   Mostly Cloudy
7:08 AM 68.0 °F 66.0 °F 93% 29.98 in 10.0 mi Calm Calm - N/A   Overcast
7:53 AM 69.1 °F 66.0 °F 90% 29.97 in 10.0 mi SSW 3.5 mph - N/A   Overcast
8:41 AM 70.0 °F 66.9 °F 90% 30.01 in 2.5 mi North 3.5 mph - 0.02 in Rain Rain
8:53 AM 70.0 °F 66.9 °F 90% 29.99 in 4.0 mi Calm Calm - 0.03 in Rain Light Rain
9:08 AM 70.0 °F 66.9 °F 90% 30.01 in 5.0 mi Calm Calm - 0.01 in Rain Light Rain
9:21 AM 70.0 °F 66.9 °F 90% 30.04 in 1.5 mi SW 13.8 mph 19.6 mph 0.09 in Rain Rain
9:23 AM 70.0 °F 66.9 °F 90% 30.03 in 0.8 mi WSW 15.0 mph 21.9 mph 0.16 in Rain Heavy Rain
9:34 AM 68.0 °F 64.0 °F 87% 30.00 in 1.0 mi Calm Calm - 0.26 in Rain Light Rain
9:38 AM 68.0 °F 64.9 °F 90% 30.00 in 2.0 mi Calm Calm - 0.27 in Rain Light Rain
9:41 AM 68.0 °F 64.9 °F 90% 30.00 in 2.5 mi Calm Calm - 0.27 in Rain Light Rain
9:53 AM 69.1 °F 64.9 °F 87% 29.98 in 3.0 mi North 5.8 mph - 0.29 in Rain Light Rain
10:53 AM 72.0 °F 66.9 °F 84% 29.95 in 10.0 mi East 4.6 mph - 0.02 in   Mostly Cloudy
11:53 AM 73.0 °F 66.9 °F 81% 29.97 in 10.0 mi Calm Calm - N/A   Partly Cloudy
12:50 PM 73.4 °F 68.0 °F 83% 30.00 in 10.0 mi WNW 4.6 mph - 0.00 in   Overcast
12:53 PM 73.9 °F 68.0 °F 82% 29.99 in 10.0 mi West 5.8 mph - 0.00 in   Overcast
1:20 PM 73.9 °F 66.9 °F 79% 30.00 in 10.0 mi WNW 5.8 mph - N/A   Overcast
1:27 PM 73.9 °F 66.0 °F 76% 30.00 in 10.0 mi WSW 5.8 mph - N/A   Overcast
1:53 PM 73.9 °F 66.9 °F 79% 29.99 in 10.0 mi West 6.9 mph - N/A   Overcast
2:17 PM 75.0 °F 66.9 °F 76% 30.00 in 10.0 mi Variable 5.8 mph - N/A   Overcast
2:53 PM 77.0 °F 64.9 °F 66% 29.98 in 10.0 mi West 8.1 mph - N/A   Mostly Cloudy
3:28 PM 75.0 °F 66.9 °F 76% 29.99 in 10.0 mi NNE 8.1 mph - N/A   Overcast
3:42 PM 75.0 °F 66.9 °F 76% 29.99 in 10.0 mi North 6.9 mph - N/A   Overcast
3:53 PM 75.9 °F 66.9 °F 74% 29.97 in 10.0 mi North 9.2 mph - N/A   Overcast
4:53 PM 73.0 °F 68.0 °F 84% 29.97 in 9.0 mi NNE 9.2 mph - 0.00 in   Overcast
5:50 PM 73.4 °F 66.2 °F 78% 29.98 in 10.0 mi NE 10.4 mph - 0.00 in   Mostly Cloudy
5:53 PM 73.0 °F 66.9 °F 81% 29.97 in 10.0 mi NNE 10.4 mph - 0.00 in   Mostly Cloudy
6:53 PM 71.1 °F 64.9 °F 81% 29.99 in 10.0 mi NE 8.1 mph - N/A   Overcast
7:53 PM 69.1 °F 63.0 °F 81% 30.00 in 10.0 mi NE 6.9 mph - N/A   Scattered Clouds
8:53 PM 66.9 °F 62.1 °F 84% 30.00 in 10.0 mi NNE 5.8 mph - N/A   Partly Cloudy
9:53 PM 66.0 °F 62.1 °F 87% 30.02 in 10.0 mi NNE 4.6 mph - N/A   Clear
10:53 PM 64.0 °F 61.0 °F 90% 30.03 in 10.0 mi NNE 5.8 mph - N/A   Clear
11:53 PM 64.0 °F 61.0 °F 90% 30.04 in 10.0 mi NNE 6.9 mph - N/A   Clear